Location: Gro�bocka
(50.8204°N, 11.9702°E)
Time: 06:44:06
(UTC+00:00)

SAR-Lupe-4 - Pass Details

Date: 29 October 2020
Orbit: 481 x 484 km, 98.2° (Epoch: 25 November)

Event Time Altitude Azimuth Distance (km) Brightness Sun altitude
Rises 17:02:48 0° 17° (NNE) 2,558 7.0 -11.7°
Reaches altitude 10° 17:04:54 10° 22° (NNE) 1,673 6.0 -12.1°
Maximum altitude 17:08:27 58° 102° (ESE) 572 3.6 -12.6°
Drops below altitude 10° 17:11:57 10° 182° (S) 1,658 6.4 -13.2°
Sets 17:14:02 0° 187° (S) 2,533 7.4 -13.5°
